Year,Month,Day,Hour,Minute,Value (Times are PST for windspeed in km/hr)
2009,03,14,00,00,0.00
2009,03,14,00,01,0.20
2009,03,14,00,02,0.90
2009,03,14,00,03,0.00
2009,03,14,00,04,0.00
2009,03,14,00,05,2.00
2009,03,14,00,06,3.90
2009,03,14,00,07,5.10
2009,03,14,00,08,5.40
2009,03,14,00,09,1.10
2009,03,14,00,10,4.10
2009,03,14,00,11,1.90
2009,03,14,00,12,3.50
2009,03,14,00,13,2.20
2009,03,14,00,14,4.00
2009,03,14,00,15,4.30
2009,03,14,00,16,5.00
2009,03,14,00,17,5.80
2009,03,14,00,18,3.10
2009,03,14,00,19,3.00
2009,03,14,00,20,2.70
2009,03,14,00,21,4.90
2009,03,14,00,22,6.00
2009,03,14,00,23,1.30
2009,03,14,00,24,0.40
2009,03,14,00,25,1.90
2009,03,14,00,26,2.80
2009,03,14,00,27,0.90
2009,03,14,00,28,0.00
2009,03,14,00,29,0.70
2009,03,14,00,30,0.40
2009,03,14,00,31,1.20
2009,03,14,00,32,1.00
2009,03,14,00,33,0.20
2009,03,14,00,34,0.00
2009,03,14,00,35,0.00
2009,03,14,00,36,0.00
2009,03,14,00,37,0.00
2009,03,14,00,38,0.00
2009,03,14,00,39,0.00
2009,03,14,00,40,0.80
2009,03,14,00,41,0.00
2009,03,14,00,42,1.00
2009,03,14,00,43,0.60
2009,03,14,00,44,0.00
2009,03,14,00,45,0.00
2009,03,14,00,46,0.00
2009,03,14,00,47,0.00
2009,03,14,00,48,0.00
2009,03,14,00,49,0.00
2009,03,14,00,50,0.00
2009,03,14,00,51,0.20
2009,03,14,00,52,0.10
2009,03,14,00,53,0.00
2009,03,14,00,54,0.00
2009,03,14,00,55,0.40
2009,03,14,00,56,0.30
2009,03,14,00,57,0.00
2009,03,14,00,58,0.00
2009,03,14,00,59,0.00
2009,03,14,01,00,0.00
2009,03,14,01,01,0.00
2009,03,14,01,02,0.00
2009,03,14,01,03,0.00
2009,03,14,01,04,0.00
2009,03,14,01,05,0.00
2009,03,14,01,06,0.00
2009,03,14,01,07,0.00
2009,03,14,01,08,0.00
2009,03,14,01,09,0.00
2009,03,14,01,10,0.00
2009,03,14,01,11,0.00
2009,03,14,01,12,0.20
2009,03,14,01,13,0.00
2009,03,14,01,14,0.00
2009,03,14,01,15,0.00
2009,03,14,01,16,0.00
2009,03,14,01,17,0.30
2009,03,14,01,18,0.90
2009,03,14,01,19,0.00
2009,03,14,01,20,0.00
2009,03,14,01,21,0.00
2009,03,14,01,22,0.00
2009,03,14,01,23,0.20
2009,03,14,01,24,0.00
2009,03,14,01,25,0.00
2009,03,14,01,26,0.00
2009,03,14,01,27,0.00
2009,03,14,01,28,0.00
2009,03,14,01,29,0.00
2009,03,14,01,30,0.00
2009,03,14,01,31,0.00
2009,03,14,01,32,0.00
2009,03,14,01,33,0.40
2009,03,14,01,34,0.20
2009,03,14,01,35,0.00
2009,03,14,01,36,0.00
2009,03,14,01,37,0.00
2009,03,14,01,38,0.00
2009,03,14,01,39,0.00
2009,03,14,01,40,0.00
2009,03,14,01,41,0.00
2009,03,14,01,42,0.00
2009,03,14,01,43,0.00
2009,03,14,01,44,0.00
2009,03,14,01,45,0.10
2009,03,14,01,46,0.00
2009,03,14,01,47,0.00
2009,03,14,01,48,0.10
2009,03,14,01,49,0.00
2009,03,14,01,50,0.00
2009,03,14,01,51,0.00
2009,03,14,01,52,0.00
2009,03,14,01,53,0.00
2009,03,14,01,54,0.10
2009,03,14,01,55,0.00
2009,03,14,01,56,0.00
2009,03,14,01,57,0.10
2009,03,14,01,58,0.00
2009,03,14,01,59,0.00
2009,03,14,02,00,0.00
2009,03,14,02,01,0.00
2009,03,14,02,02,0.00
2009,03,14,02,03,0.00
2009,03,14,02,04,0.00
2009,03,14,02,05,0.00
2009,03,14,02,06,0.00
2009,03,14,02,07,0.00
2009,03,14,02,08,0.10
2009,03,14,02,09,0.10
2009,03,14,02,10,0.00
2009,03,14,02,11,0.00
2009,03,14,02,12,0.00
2009,03,14,02,13,0.00
2009,03,14,02,14,0.00
2009,03,14,02,15,0.00
2009,03,14,02,16,0.00
2009,03,14,02,17,0.00
2009,03,14,02,18,0.00
2009,03,14,02,19,0.00
2009,03,14,02,20,0.00
2009,03,14,02,21,0.00
2009,03,14,02,22,0.00
2009,03,14,02,23,0.00
2009,03,14,02,24,0.00
2009,03,14,02,25,0.00
2009,03,14,02,26,0.00
2009,03,14,02,27,0.00
2009,03,14,02,28,0.00
2009,03,14,02,29,0.00
2009,03,14,02,30,0.00
2009,03,14,02,31,0.00
2009,03,14,02,32,0.00
2009,03,14,02,33,0.00
2009,03,14,02,34,0.00
2009,03,14,02,35,0.00
2009,03,14,02,36,0.00
2009,03,14,02,37,0.00
2009,03,14,02,38,0.00
2009,03,14,02,39,0.00
2009,03,14,02,40,0.00
2009,03,14,02,41,0.00
2009,03,14,02,42,2.00
2009,03,14,02,43,5.20
2009,03,14,02,44,10.00
2009,03,14,02,45,7.50
2009,03,14,02,46,7.60
2009,03,14,02,47,2.50
2009,03,14,02,48,0.10
2009,03,14,02,49,3.00
2009,03,14,02,50,0.30
2009,03,14,02,51,1.70
2009,03,14,02,52,0.60
2009,03,14,02,53,0.10
2009,03,14,02,54,0.00
2009,03,14,02,55,0.00
2009,03,14,02,56,0.00
2009,03,14,02,57,0.30
2009,03,14,02,58,3.70
2009,03,14,02,59,1.60
2009,03,14,03,00,2.70
2009,03,14,03,01,2.80
2009,03,14,03,02,0.00
2009,03,14,03,03,0.00
2009,03,14,03,04,0.00
2009,03,14,03,05,0.00
2009,03,14,03,06,0.00
2009,03,14,03,07,0.00
2009,03,14,03,08,1.40
2009,03,14,03,09,4.10
2009,03,14,03,10,1.00
2009,03,14,03,11,0.30
2009,03,14,03,12,1.70
2009,03,14,03,13,0.70
2009,03,14,03,14,2.40
2009,03,14,03,15,4.40
2009,03,14,03,16,3.20
2009,03,14,03,17,3.60
2009,03,14,03,18,4.70
2009,03,14,03,19,1.90
2009,03,14,03,20,3.80
2009,03,14,03,21,9.30
2009,03,14,03,22,6.90
2009,03,14,03,23,4.30
2009,03,14,03,24,1.50
2009,03,14,03,25,0.80
2009,03,14,03,26,4.50
2009,03,14,03,27,10.00
2009,03,14,03,28,5.40
2009,03,14,03,29,9.70
2009,03,14,03,30,8.80
2009,03,14,03,31,3.60
2009,03,14,03,32,4.40
2009,03,14,03,33,6.00
2009,03,14,03,34,5.80
2009,03,14,03,35,7.10
2009,03,14,03,36,6.00
2009,03,14,03,37,6.80
2009,03,14,03,38,7.70
2009,03,14,03,39,7.80
2009,03,14,03,40,2.80
2009,03,14,03,41,4.70
2009,03,14,03,42,5.40
2009,03,14,03,43,6.90
2009,03,14,03,44,6.40
2009,03,14,03,45,2.50
2009,03,14,03,46,0.60
2009,03,14,03,47,2.20
2009,03,14,03,48,6.90
2009,03,14,03,49,3.90
2009,03,14,03,50,5.40
2009,03,14,03,51,4.60
2009,03,14,03,52,0.10
2009,03,14,03,53,3.00
2009,03,14,03,54,2.50
2009,03,14,03,55,5.20
2009,03,14,03,56,4.90
2009,03,14,03,57,5.30
2009,03,14,03,58,0.50
2009,03,14,03,59,2.00
2009,03,14,04,00,4.10
2009,03,14,04,01,1.50
2009,03,14,04,02,3.90
2009,03,14,04,03,3.20
2009,03,14,04,04,1.90
2009,03,14,04,05,3.70
2009,03,14,04,06,3.60
2009,03,14,04,07,1.40
2009,03,14,04,08,4.50
2009,03,14,04,09,2.50
2009,03,14,04,10,5.10
2009,03,14,04,11,6.40
2009,03,14,04,12,9.10
2009,03,14,04,13,9.90
2009,03,14,04,14,6.70
2009,03,14,04,15,5.80
2009,03,14,04,16,4.00
2009,03,14,04,17,4.60
2009,03,14,04,18,4.00
2009,03,14,04,19,5.50
2009,03,14,04,20,6.50
2009,03,14,04,21,5.80
2009,03,14,04,22,8.30
2009,03,14,04,23,7.40
2009,03,14,04,24,5.60
2009,03,14,04,25,7.50
2009,03,14,04,26,4.60
2009,03,14,04,27,4.40
2009,03,14,04,28,3.20
2009,03,14,04,29,4.80
2009,03,14,04,30,4.30
2009,03,14,04,31,3.70
2009,03,14,04,32,4.70
2009,03,14,04,33,8.10
2009,03,14,04,34,7.30
2009,03,14,04,35,4.30
2009,03,14,04,36,6.90
2009,03,14,04,37,9.10
2009,03,14,04,38,8.30
2009,03,14,04,39,5.80
2009,03,14,04,40,6.80
2009,03,14,04,41,9.70
2009,03,14,04,42,8.40
2009,03,14,04,43,5.50
2009,03,14,04,44,6.90
2009,03,14,04,45,6.20
2009,03,14,04,46,3.90
2009,03,14,04,47,4.60
2009,03,14,04,48,4.90
2009,03,14,04,49,7.70
2009,03,14,04,50,8.00
2009,03,14,04,51,4.80
2009,03,14,04,52,4.10
2009,03,14,04,53,4.40
2009,03,14,04,54,1.00
2009,03,14,04,55,2.80
2009,03,14,04,56,3.20
2009,03,14,04,57,2.10
2009,03,14,04,58,0.00
2009,03,14,04,59,0.00
2009,03,14,05,00,4.60
2009,03,14,05,01,3.40
2009,03,14,05,02,4.50
2009,03,14,05,03,5.70
2009,03,14,05,04,9.60
2009,03,14,05,05,1.50
2009,03,14,05,06,4.00
2009,03,14,05,07,3.60
2009,03,14,05,08,3.90
2009,03,14,05,09,5.60
2009,03,14,05,10,3.60
2009,03,14,05,11,2.20
2009,03,14,05,12,1.60
2009,03,14,05,13,1.60
2009,03,14,05,14,4.00
2009,03,14,05,15,3.20
2009,03,14,05,16,3.00
2009,03,14,05,17,4.30
2009,03,14,05,18,1.50
2009,03,14,05,19,3.90
2009,03,14,05,20,4.80
2009,03,14,05,21,1.90
2009,03,14,05,22,0.60
2009,03,14,05,23,0.00
2009,03,14,05,24,0.00
2009,03,14,05,25,2.70
2009,03,14,05,26,2.10
2009,03,14,05,27,3.10
2009,03,14,05,28,4.00
2009,03,14,05,29,3.50
2009,03,14,05,30,1.30
2009,03,14,05,31,1.10
2009,03,14,05,32,4.10
2009,03,14,05,33,0.90
2009,03,14,05,34,1.80
2009,03,14,05,35,5.30
2009,03,14,05,36,4.10
2009,03,14,05,37,3.40
2009,03,14,05,38,1.30
2009,03,14,05,39,6.20
2009,03,14,05,40,6.50
2009,03,14,05,41,3.80
2009,03,14,05,42,3.60
2009,03,14,05,43,4.10
2009,03,14,05,44,5.40
2009,03,14,05,45,4.90
2009,03,14,05,46,7.20
2009,03,14,05,47,4.40
2009,03,14,05,48,3.40
2009,03,14,05,49,3.80
2009,03,14,05,50,4.60
2009,03,14,05,51,6.00
2009,03,14,05,52,4.10
2009,03,14,05,53,9.10
2009,03,14,05,54,6.20
2009,03,14,05,55,6.00
2009,03,14,05,56,6.60
2009,03,14,05,57,3.40
2009,03,14,05,58,2.40
2009,03,14,05,59,2.10
2009,03,14,06,00,3.00
2009,03,14,06,01,3.50
2009,03,14,06,02,1.50
2009,03,14,06,03,0.00
2009,03,14,06,04,0.00
2009,03,14,06,05,2.00
2009,03,14,06,06,1.10
2009,03,14,06,07,1.40
2009,03,14,06,08,1.60
2009,03,14,06,09,1.40
2009,03,14,06,10,2.00
2009,03,14,06,11,0.90
2009,03,14,06,12,1.10
2009,03,14,06,13,0.10
2009,03,14,06,14,0.00
2009,03,14,06,15,0.00
2009,03,14,06,16,0.00
2009,03,14,06,17,0.00
2009,03,14,06,18,0.00
2009,03,14,06,19,0.80
2009,03,14,06,20,0.00
2009,03,14,06,21,0.00
2009,03,14,06,22,0.00
2009,03,14,06,23,0.00
2009,03,14,06,24,0.00
2009,03,14,06,25,0.00
2009,03,14,06,26,0.00
2009,03,14,06,27,0.00
2009,03,14,06,28,0.00
2009,03,14,06,29,0.00
2009,03,14,06,30,0.00
2009,03,14,06,31,0.00
2009,03,14,06,32,0.00
2009,03,14,06,33,0.00
2009,03,14,06,34,0.00
2009,03,14,06,35,0.00
2009,03,14,06,36,0.00
2009,03,14,06,37,0.00
2009,03,14,06,38,0.00
2009,03,14,06,39,0.00
2009,03,14,06,40,0.00
2009,03,14,06,41,0.00
2009,03,14,06,42,0.00
2009,03,14,06,43,0.00
2009,03,14,06,44,0.00
2009,03,14,06,45,0.00
2009,03,14,06,46,0.00
2009,03,14,06,47,0.00
2009,03,14,06,48,0.00
2009,03,14,06,49,0.00
2009,03,14,06,50,0.00
2009,03,14,06,51,0.00
2009,03,14,06,52,0.00
2009,03,14,06,53,0.00
2009,03,14,06,54,0.00
2009,03,14,06,55,0.00
2009,03,14,06,56,0.00
2009,03,14,06,57,0.00
2009,03,14,06,58,0.00
2009,03,14,06,59,0.00
2009,03,14,07,00,0.00
2009,03,14,07,01,0.00
2009,03,14,07,02,0.00
2009,03,14,07,03,0.00
2009,03,14,07,04,0.00
2009,03,14,07,05,0.00
2009,03,14,07,06,0.00
2009,03,14,07,07,0.00
2009,03,14,07,08,0.00
2009,03,14,07,09,0.00
2009,03,14,07,10,0.00
2009,03,14,07,11,0.00
2009,03,14,07,12,0.00
2009,03,14,07,13,0.00
2009,03,14,07,14,0.00
2009,03,14,07,15,0.00
2009,03,14,07,16,0.00
2009,03,14,07,17,0.00
2009,03,14,07,18,0.00
2009,03,14,07,19,0.00
2009,03,14,07,20,0.00
2009,03,14,07,21,0.00
2009,03,14,07,22,0.00
2009,03,14,07,23,0.00
2009,03,14,07,24,0.00
2009,03,14,07,25,0.00
2009,03,14,07,26,0.00
2009,03,14,07,27,0.00
2009,03,14,07,28,0.00
2009,03,14,07,29,0.00
2009,03,14,07,30,0.00
2009,03,14,07,31,0.00
2009,03,14,07,32,0.00
2009,03,14,07,33,0.00
2009,03,14,07,34,0.00
2009,03,14,07,35,0.00
2009,03,14,07,36,0.00
2009,03,14,07,37,0.00
2009,03,14,07,38,0.00
2009,03,14,07,39,0.10
2009,03,14,07,40,0.10
2009,03,14,07,41,0.10
2009,03,14,07,42,0.30
2009,03,14,07,43,4.60
2009,03,14,07,44,3.70
2009,03,14,07,45,3.00
2009,03,14,07,46,3.90
2009,03,14,07,47,8.30
2009,03,14,07,48,7.50
2009,03,14,07,49,4.20
2009,03,14,07,50,4.20
2009,03,14,07,51,3.70
2009,03,14,07,52,6.20
2009,03,14,07,53,5.30
2009,03,14,07,54,3.00
2009,03,14,07,55,3.10
2009,03,14,07,56,3.70
2009,03,14,07,57,3.90
2009,03,14,07,58,1.10
2009,03,14,07,59,3.00
2009,03,14,08,00,5.30
2009,03,14,08,01,4.60
2009,03,14,08,02,2.90
2009,03,14,08,03,2.70
2009,03,14,08,04,3.40
2009,03,14,08,05,3.60
2009,03,14,08,06,1.80
2009,03,14,08,07,0.00
2009,03,14,08,08,0.00
2009,03,14,08,09,2.20
2009,03,14,08,10,1.60
2009,03,14,08,11,0.70
2009,03,14,08,12,2.60
2009,03,14,08,13,0.40
2009,03,14,08,14,0.50
2009,03,14,08,15,0.60
2009,03,14,08,16,2.20
2009,03,14,08,17,1.70
2009,03,14,08,18,4.00
2009,03,14,08,19,5.50
2009,03,14,08,20,4.70
2009,03,14,08,21,4.30
2009,03,14,08,22,3.70
2009,03,14,08,23,2.50
2009,03,14,08,24,2.90
2009,03,14,08,25,2.20
2009,03,14,08,26,3.40
2009,03,14,08,27,1.30
2009,03,14,08,28,1.40
2009,03,14,08,29,0.10
2009,03,14,08,30,2.70
2009,03,14,08,31,0.10
2009,03,14,08,32,5.30
2009,03,14,08,33,5.40
2009,03,14,08,34,4.80
2009,03,14,08,35,4.40
2009,03,14,08,36,3.50
2009,03,14,08,37,2.00
2009,03,14,08,38,0.60
2009,03,14,08,39,2.40
2009,03,14,08,40,1.50
2009,03,14,08,41,0.00
2009,03,14,08,42,1.90
2009,03,14,08,43,0.20
2009,03,14,08,44,0.00
2009,03,14,08,45,0.00
2009,03,14,08,46,0.00
2009,03,14,08,47,0.10
2009,03,14,08,48,0.50
2009,03,14,08,49,0.00
2009,03,14,08,50,0.00
2009,03,14,08,51,0.50
2009,03,14,08,52,0.10
2009,03,14,08,53,0.00
2009,03,14,08,54,0.00
2009,03,14,08,55,0.70
2009,03,14,08,56,1.60
2009,03,14,08,57,2.10
2009,03,14,08,58,1.80
2009,03,14,08,59,0.10
2009,03,14,09,00,0.60
2009,03,14,09,01,0.30
2009,03,14,09,02,1.00
2009,03,14,09,03,0.30
2009,03,14,09,04,2.20
2009,03,14,09,05,2.80
2009,03,14,09,06,2.20
2009,03,14,09,07,1.80
2009,03,14,09,08,0.20
2009,03,14,09,09,0.80
2009,03,14,09,10,1.20
2009,03,14,09,11,0.40
2009,03,14,09,12,0.00
2009,03,14,09,13,0.00
2009,03,14,09,14,0.00
2009,03,14,09,15,1.50
2009,03,14,09,16,5.80
2009,03,14,09,17,4.30
2009,03,14,09,18,5.50
2009,03,14,09,19,11.10
2009,03,14,09,20,7.60
2009,03,14,09,21,11.30
2009,03,14,09,22,9.20
2009,03,14,09,23,5.50
2009,03,14,09,24,6.60
2009,03,14,09,25,8.00
2009,03,14,09,26,9.50
2009,03,14,09,27,9.00
2009,03,14,09,28,5.70
2009,03,14,09,29,7.30
2009,03,14,09,30,4.80
2009,03,14,09,31,10.40
2009,03,14,09,32,8.50
2009,03,14,09,33,10.00
2009,03,14,09,34,7.90
2009,03,14,09,35,7.20
2009,03,14,09,36,6.00
2009,03,14,09,37,3.10
2009,03,14,09,38,2.80
2009,03,14,09,39,8.70
2009,03,14,09,40,6.40
2009,03,14,09,41,2.70
2009,03,14,09,42,4.10
2009,03,14,09,43,3.60
2009,03,14,09,44,4.00
2009,03,14,09,45,4.10
2009,03,14,09,46,5.90
2009,03,14,09,47,5.00
2009,03,14,09,48,6.70
2009,03,14,09,49,4.80
2009,03,14,09,50,0.90
2009,03,14,09,51,4.80
2009,03,14,09,52,6.70
2009,03,14,09,53,7.70
2009,03,14,09,54,7.50
2009,03,14,09,55,8.70
2009,03,14,09,56,6.90
2009,03,14,09,57,4.10
2009,03,14,09,58,11.30
2009,03,14,09,59,6.40
2009,03,14,10,00,7.50
2009,03,14,10,01,7.60
2009,03,14,10,02,9.20
2009,03,14,10,03,5.20
2009,03,14,10,04,9.60
2009,03,14,10,05,9.70
2009,03,14,10,06,11.60
2009,03,14,10,07,9.90
2009,03,14,10,08,6.00
2009,03,14,10,09,5.50
2009,03,14,10,10,7.50
2009,03,14,10,11,8.00
2009,03,14,10,12,5.30
2009,03,14,10,13,4.90
2009,03,14,10,14,4.60
2009,03,14,10,15,5.70
2009,03,14,10,16,8.80
2009,03,14,10,17,8.90
2009,03,14,10,18,10.50
2009,03,14,10,19,6.90
2009,03,14,10,20,8.40
2009,03,14,10,21,7.20
2009,03,14,10,22,5.50
2009,03,14,10,23,9.40
2009,03,14,10,24,10.90
2009,03,14,10,25,10.70
2009,03,14,10,26,12.00
2009,03,14,10,27,12.80
2009,03,14,10,28,12.30
2009,03,14,10,29,13.40
2009,03,14,10,30,14.50
2009,03,14,10,31,9.80
2009,03,14,10,32,19.20
2009,03,14,10,33,14.70
2009,03,14,10,34,16.90
2009,03,14,10,35,8.20
2009,03,14,10,36,10.90
2009,03,14,10,37,8.90
2009,03,14,10,38,9.70
2009,03,14,10,39,11.40
2009,03,14,10,40,6.50
2009,03,14,10,41,6.90
2009,03,14,10,42,10.90
2009,03,14,10,43,12.50
2009,03,14,10,44,10.00
2009,03,14,10,45,6.10
2009,03,14,10,46,9.70
2009,03,14,10,47,13.20
2009,03,14,10,48,7.90
2009,03,14,10,49,6.40
2009,03,14,10,50,7.00
2009,03,14,10,51,9.60
2009,03,14,10,52,4.60
2009,03,14,10,53,8.80
2009,03,14,10,54,8.50
2009,03,14,10,55,9.60
2009,03,14,10,56,5.80
2009,03,14,10,57,6.00
2009,03,14,10,58,6.80
2009,03,14,10,59,8.30
2009,03,14,11,00,6.30
2009,03,14,11,01,4.10
2009,03,14,11,02,12.30
2009,03,14,11,03,5.80
2009,03,14,11,04,7.10
2009,03,14,11,05,5.70
2009,03,14,11,06,8.80
2009,03,14,11,07,6.60
2009,03,14,11,08,5.30
2009,03,14,11,09,10.90
2009,03,14,11,10,16.20
2009,03,14,11,11,7.90
2009,03,14,11,12,6.70
2009,03,14,11,13,7.70
2009,03,14,11,14,6.30
2009,03,14,11,15,7.30
2009,03,14,11,16,7.50
2009,03,14,11,17,13.00
2009,03,14,11,18,12.60
2009,03,14,11,19,12.00
2009,03,14,11,20,13.30
2009,03,14,11,21,8.80
2009,03,14,11,22,6.80
2009,03,14,11,23,9.70
2009,03,14,11,24,8.10
2009,03,14,11,25,6.00
2009,03,14,11,26,9.50
2009,03,14,11,27,12.40
2009,03,14,11,28,12.70
2009,03,14,11,29,10.70
2009,03,14,11,30,10.90
2009,03,14,11,31,15.40
2009,03,14,11,32,17.20
2009,03,14,11,33,8.10
2009,03,14,11,34,7.50
2009,03,14,11,35,14.50
2009,03,14,11,36,9.90
2009,03,14,11,37,14.70
2009,03,14,11,38,21.20
2009,03,14,11,39,13.40
2009,03,14,11,40,9.00
2009,03,14,11,41,7.40
2009,03,14,11,42,6.90
2009,03,14,11,43,6.90
2009,03,14,11,44,8.10
2009,03,14,11,45,9.90
2009,03,14,11,46,15.60
2009,03,14,11,47,8.60
2009,03,14,11,48,7.20
2009,03,14,11,49,7.10
2009,03,14,11,50,6.20
2009,03,14,11,51,13.00
2009,03,14,11,52,11.60
2009,03,14,11,53,9.60
2009,03,14,11,54,18.60
2009,03,14,11,55,12.80
2009,03,14,11,56,7.70
2009,03,14,11,57,10.30
2009,03,14,11,58,12.40
2009,03,14,11,59,7.80
2009,03,14,12,00,5.00
2009,03,14,12,01,10.60
2009,03,14,12,02,6.80
2009,03,14,12,03,10.60
2009,03,14,12,04,13.80
2009,03,14,12,05,15.40
2009,03,14,12,06,6.50
2009,03,14,12,07,6.40
2009,03,14,12,08,7.10
2009,03,14,12,09,6.40
2009,03,14,12,10,7.30
2009,03,14,12,11,13.80
2009,03,14,12,12,15.50
2009,03,14,12,13,14.70
2009,03,14,12,14,9.00
2009,03,14,12,15,9.80
2009,03,14,12,16,10.80
2009,03,14,12,17,13.40
2009,03,14,12,18,14.40
2009,03,14,12,19,10.30
2009,03,14,12,20,15.40
2009,03,14,12,21,23.30
2009,03,14,12,22,20.90
2009,03,14,12,23,13.90
2009,03,14,12,24,16.20
2009,03,14,12,25,13.00
2009,03,14,12,26,8.30
2009,03,14,12,27,13.00
2009,03,14,12,28,18.20
2009,03,14,12,29,16.60
2009,03,14,12,30,8.20
2009,03,14,12,31,11.10
2009,03,14,12,32,13.20
2009,03,14,12,33,11.80
2009,03,14,12,34,6.30
2009,03,14,12,35,10.50
2009,03,14,12,36,11.70
2009,03,14,12,37,7.60
2009,03,14,12,38,4.50
2009,03,14,12,39,6.60
2009,03,14,12,40,11.00
2009,03,14,12,41,13.40
2009,03,14,12,42,5.00
2009,03,14,12,43,6.40
2009,03,14,12,44,10.10
2009,03,14,12,45,18.50
2009,03,14,12,46,7.20
2009,03,14,12,47,4.80
2009,03,14,12,48,9.90
2009,03,14,12,49,1.30
2009,03,14,12,50,6.50
2009,03,14,12,51,4.40
2009,03,14,12,52,4.70
2009,03,14,12,53,5.20
2009,03,14,12,54,6.50
2009,03,14,12,55,13.90
2009,03,14,12,56,10.50
2009,03,14,12,57,10.90
2009,03,14,12,58,7.60
2009,03,14,12,59,11.90
2009,03,14,13,00,10.80
2009,03,14,13,01,14.10
2009,03,14,13,02,14.70
2009,03,14,13,03,17.00
2009,03,14,13,04,12.80
2009,03,14,13,05,3.80
2009,03,14,13,06,6.30
2009,03,14,13,07,12.00
2009,03,14,13,08,10.20
2009,03,14,13,09,15.00
2009,03,14,13,10,16.70
2009,03,14,13,11,16.90
2009,03,14,13,12,9.40
2009,03,14,13,13,13.80
2009,03,14,13,14,12.20
2009,03,14,13,15,9.90
2009,03,14,13,16,8.90
2009,03,14,13,17,9.30
2009,03,14,13,18,7.50
2009,03,14,13,19,12.40
2009,03,14,13,20,5.90
2009,03,14,13,21,3.90
2009,03,14,13,22,6.80
2009,03,14,13,23,10.80
2009,03,14,13,24,13.00
2009,03,14,13,25,7.10
2009,03,14,13,26,8.10
2009,03,14,13,27,8.90
2009,03,14,13,28,6.70
2009,03,14,13,29,10.80
2009,03,14,13,30,11.20
2009,03,14,13,31,9.60
2009,03,14,13,32,9.60
2009,03,14,13,33,5.40
2009,03,14,13,34,6.80
2009,03,14,13,35,5.80
2009,03,14,13,36,6.70
2009,03,14,13,37,6.80
2009,03,14,13,38,1.20
2009,03,14,13,39,11.70
2009,03,14,13,40,10.90
2009,03,14,13,41,7.30
2009,03,14,13,42,7.00
2009,03,14,13,43,7.20
2009,03,14,13,44,9.00
2009,03,14,13,45,4.70
2009,03,14,13,46,5.30
2009,03,14,13,47,5.50
2009,03,14,13,48,6.40
2009,03,14,13,49,10.90
2009,03,14,13,50,8.80
2009,03,14,13,51,10.90
2009,03,14,13,52,8.10
2009,03,14,13,53,9.70
2009,03,14,13,54,6.70
2009,03,14,13,55,10.50
2009,03,14,13,56,8.50
2009,03,14,13,57,8.30
2009,03,14,13,58,8.40
2009,03,14,13,59,8.80
2009,03,14,14,00,6.10
2009,03,14,14,01,4.00
2009,03,14,14,02,5.00
2009,03,14,14,03,6.00
2009,03,14,14,04,1.50
2009,03,14,14,05,1.60
2009,03,14,14,06,5.40
2009,03,14,14,07,5.20
2009,03,14,14,08,1.60
2009,03,14,14,09,6.60
2009,03,14,14,10,7.40
2009,03,14,14,11,4.70
2009,03,14,14,12,0.70
2009,03,14,14,13,5.50
2009,03,14,14,14,6.00
2009,03,14,14,15,4.40
2009,03,14,14,16,4.80
2009,03,14,14,17,4.60
2009,03,14,14,18,4.30
2009,03,14,14,19,2.20
2009,03,14,14,20,5.90
2009,03,14,14,21,4.70
2009,03,14,14,22,6.50
2009,03,14,14,23,3.60
2009,03,14,14,24,4.40
2009,03,14,14,25,1.80
2009,03,14,14,26,1.00
2009,03,14,14,27,1.40
2009,03,14,14,28,0.50
2009,03,14,14,29,2.10
2009,03,14,14,30,0.00
2009,03,14,14,31,0.30
2009,03,14,14,32,1.40
2009,03,14,14,33,0.90
2009,03,14,14,34,0.10
2009,03,14,14,35,0.30
2009,03,14,14,36,0.80
2009,03,14,14,37,0.10
2009,03,14,14,38,0.00
2009,03,14,14,39,0.20
2009,03,14,14,40,0.90
2009,03,14,14,41,0.70
2009,03,14,14,42,1.70
2009,03,14,14,43,0.00
2009,03,14,14,44,1.80
2009,03,14,14,45,0.80
2009,03,14,14,46,2.10
2009,03,14,14,47,0.10
2009,03,14,14,48,0.20
2009,03,14,14,49,3.60
2009,03,14,14,50,1.90
2009,03,14,14,51,2.60
2009,03,14,14,52,0.80
2009,03,14,14,53,2.00
2009,03,14,14,54,1.80
2009,03,14,14,55,0.00
2009,03,14,14,56,2.00
2009,03,14,14,57,0.60
2009,03,14,14,58,0.10
2009,03,14,14,59,2.20
2009,03,14,15,00,2.80
2009,03,14,15,01,3.90
2009,03,14,15,02,3.90
2009,03,14,15,03,0.70
2009,03,14,15,04,2.20
2009,03,14,15,05,1.70
2009,03,14,15,06,1.90
2009,03,14,15,07,1.10
2009,03,14,15,08,1.80
2009,03,14,15,09,2.50
2009,03,14,15,10,3.60
2009,03,14,15,11,7.10
2009,03,14,15,12,3.70
2009,03,14,15,13,2.50
2009,03,14,15,14,2.20
2009,03,14,15,15,1.90
2009,03,14,15,16,1.70
2009,03,14,15,17,1.60
2009,03,14,15,18,2.40
2009,03,14,15,19,1.60
2009,03,14,15,20,0.00
2009,03,14,15,21,0.00
2009,03,14,15,22,0.40
2009,03,14,15,23,0.90
2009,03,14,15,24,0.00
2009,03,14,15,25,0.00
2009,03,14,15,26,2.20
2009,03,14,15,27,1.10
2009,03,14,15,28,0.10
2009,03,14,15,29,0.40
2009,03,14,15,30,0.90
2009,03,14,15,31,0.80
2009,03,14,15,32,2.10
2009,03,14,15,33,0.30
2009,03,14,15,34,2.30
2009,03,14,15,35,1.00
2009,03,14,15,36,1.80
2009,03,14,15,37,2.10
2009,03,14,15,38,1.50
2009,03,14,15,39,0.90
2009,03,14,15,40,0.10
2009,03,14,15,41,0.00
2009,03,14,15,42,0.00
2009,03,14,15,43,3.20
2009,03,14,15,44,4.70
2009,03,14,15,45,2.10
2009,03,14,15,46,1.40
2009,03,14,15,47,0.30
2009,03,14,15,48,0.00
2009,03,14,15,49,1.00
2009,03,14,15,50,0.80
2009,03,14,15,51,1.40
2009,03,14,15,52,0.90
2009,03,14,15,53,0.00
2009,03,14,15,54,0.60
2009,03,14,15,55,1.10
2009,03,14,15,56,1.70
2009,03,14,15,57,2.10
2009,03,14,15,58,1.40
2009,03,14,15,59,2.30
2009,03,14,16,00,0.40
2009,03,14,16,01,0.00
2009,03,14,16,02,0.00
2009,03,14,16,03,0.10
2009,03,14,16,04,1.60
2009,03,14,16,05,0.10
2009,03,14,16,06,0.60
2009,03,14,16,07,0.50
2009,03,14,16,08,1.50
2009,03,14,16,09,0.00
2009,03,14,16,10,0.20
2009,03,14,16,11,2.80
2009,03,14,16,12,5.60
2009,03,14,16,13,3.10
2009,03,14,16,14,0.30
2009,03,14,16,15,0.20
2009,03,14,16,16,0.30
2009,03,14,16,17,0.30
2009,03,14,16,18,1.60
2009,03,14,16,19,1.80
2009,03,14,16,20,0.50
2009,03,14,16,21,0.20
2009,03,14,16,22,0.70
2009,03,14,16,23,2.30
2009,03,14,16,24,0.50
2009,03,14,16,25,2.10
2009,03,14,16,26,0.40
2009,03,14,16,27,0.10
2009,03,14,16,28,0.00
2009,03,14,16,29,0.00
2009,03,14,16,30,0.10
2009,03,14,16,31,0.00
2009,03,14,16,32,2.10
2009,03,14,16,33,1.00
2009,03,14,16,34,0.60
2009,03,14,16,35,4.30
2009,03,14,16,36,2.10
2009,03,14,16,37,2.90
2009,03,14,16,38,0.90
2009,03,14,16,39,1.10
2009,03,14,16,40,0.50
2009,03,14,16,41,0.10
2009,03,14,16,42,0.00
2009,03,14,16,43,0.00
2009,03,14,16,44,0.00
2009,03,14,16,45,0.10
2009,03,14,16,46,1.50
2009,03,14,16,47,0.50
2009,03,14,16,48,0.00
2009,03,14,16,49,0.00
2009,03,14,16,50,0.00
2009,03,14,16,51,0.00
2009,03,14,16,52,0.00
2009,03,14,16,53,0.00
2009,03,14,16,54,0.00
2009,03,14,16,55,0.00
2009,03,14,16,56,0.00
2009,03,14,16,57,0.00
2009,03,14,16,58,0.00
2009,03,14,16,59,0.00
2009,03,14,17,00,0.00
2009,03,14,17,01,0.00
2009,03,14,17,02,0.00
2009,03,14,17,03,0.00
2009,03,14,17,04,0.00
2009,03,14,17,05,0.00
2009,03,14,17,06,0.00
2009,03,14,17,07,0.00
2009,03,14,17,08,0.30
2009,03,14,17,09,1.60
2009,03,14,17,10,2.50
2009,03,14,17,11,2.30
2009,03,14,17,12,0.00
2009,03,14,17,13,0.00
2009,03,14,17,14,0.00
2009,03,14,17,15,0.00
2009,03,14,17,16,0.00
2009,03,14,17,17,0.00
2009,03,14,17,18,0.00
2009,03,14,17,19,0.00
2009,03,14,17,20,0.00
2009,03,14,17,21,0.00
2009,03,14,17,22,0.30
2009,03,14,17,23,0.00
2009,03,14,17,24,0.00
2009,03,14,17,25,0.00
2009,03,14,17,26,0.00
2009,03,14,17,27,0.00
2009,03,14,17,28,0.00
2009,03,14,17,29,0.00
2009,03,14,17,30,0.00
2009,03,14,17,31,0.00
2009,03,14,17,32,0.00
2009,03,14,17,33,0.00
2009,03,14,17,34,0.00
2009,03,14,17,35,0.00
2009,03,14,17,36,0.00
2009,03,14,17,37,0.00
2009,03,14,17,38,0.00
2009,03,14,17,39,0.00
2009,03,14,17,40,0.20
2009,03,14,17,41,0.30
2009,03,14,17,42,0.00
2009,03,14,17,43,0.00
2009,03,14,17,44,0.30
2009,03,14,17,45,2.50
2009,03,14,17,46,3.20
2009,03,14,17,47,2.50
2009,03,14,17,48,2.90
2009,03,14,17,49,3.70
2009,03,14,17,50,2.80
2009,03,14,17,51,1.70
2009,03,14,17,52,0.00
2009,03,14,17,53,3.00
2009,03,14,17,54,4.50
2009,03,14,17,55,5.00
2009,03,14,17,56,4.00
2009,03,14,17,57,5.40
2009,03,14,17,58,6.80
2009,03,14,17,59,4.10
2009,03,14,18,00,5.30
2009,03,14,18,01,4.90